FW7211 Weather Reports


time (UTC)temp
F
wind
direction
speed
knots
gust
knots
rain 1hr
in
rain 24hr
in
rain mn
in
humidity
%
barometer
mb
20260504185657 72 60 0.0 2.6 0.00 0.00 0.00 46
20260504185154 72 232 0.0 1.7 0.00 0.00 0.00 46
20260504184650 71 359 1.7 2.6 0.00 0.00 0.00 46
20260504184145 72 93 0.9 1.7 0.00 0.00 0.00 46
20260504183642 72 88 0.9 1.7 0.00 0.00 0.00 46
20260504183139 72 123 0.0 1.7 0.00 0.00 0.00 43
20260504182637 72 57 1.7 1.7 0.00 0.00 0.00 44
20260504182134 71 85 1.7 1.7 0.00 0.00 0.00 48
20260504181632 70 109 0.9 1.7 0.00 0.00 0.00 47
20260504181129 70 120 0.9 1.7 0.00 0.00 0.00 47
20260504180628 71 105 0.9 1.7 0.00 0.00 0.00 47
20260504180126 70 140 0.0 1.7 0.00 0.00 0.00 47
20260504175624 71 116 0.0 1.7 0.00 0.00 0.00 46
20260504175120 70 36 0.0 2.6 0.00 0.00 0.00 45
20260504174618 69 127 0.0 3.5 0.00 0.00 0.00 47
20260504174114 70 69 0.0 2.6 0.00 0.00 0.00 50
20260504173611 70 84 0.0 1.7 0.00 0.00 0.00 48
20260504173109 70 354 2.6 2.6 0.00 0.00 0.00 49
20260504172605 70 93 0.0 1.7 0.00 0.00 0.00 48
20260504172102 69 93 0.9 1.7 0.00 0.00 0.00 46
20260504171558 68 60 0.9 1.7 0.00 0.00 0.00 47
20260504171055 68 113 0.0 1.7 0.00 0.00 0.00 48
20260504170551 68 100 1.7 1.7 0.00 0.00 0.00 50
20260504150935 63 85 0.9 2.6 0.00 0.00 0.00 62
20260504150432 62 12 1.7 2.6 0.00 0.00 0.00 60
20260504140858 62 39 0.9 2.6 0.00 0.00 0.00 57
20260504140349 63 66 0.9 2.6 0.00 0.00 0.00 56
20260504130817 60 58 1.7 3.5 0.00 0.00 0.00 60
20260504130313 59 122 2.6 3.5 0.00 0.00 0.00 59
20260504120237 55 94 1.7 2.6 0.00 0.00 0.00 63
20260504110704 52 77 1.7 2.6 0.00 0.00 0.00 70
20260504110200 53 82 1.7 2.6 0.00 0.00 0.00 69
20260504100119 54 92 1.7 2.6 0.00 0.00 0.00 69
20260504081512 54 96 1.7 1.7 0.00 0.00 0.00 74
20260504081008 54 101 1.7 1.7 0.00 0.00 0.00 75
20260504080504 54 89 1.7 1.7 0.00 0.00 0.00 72
20260504050317 48 74 0.9 2.6 0.00 0.00 0.00 83
20260504045814 48 49 2.6 3.5 0.00 0.00 0.00 83
20260504045314 48 61 1.7 2.6 0.00 0.00 0.00 82
20260504044812 48 72 1.7 1.7 0.00 0.00 0.00 81
20260504044309 48 67 1.7 1.7 0.00 0.00 0.00 83
20260504043806 48 73 1.7 2.6 0.00 0.00 0.00 81
20260504043303 48 69 1.7 1.7 0.00 0.00 0.00 82
20260504042801 47 94 1.7 1.7 0.00 0.00 0.00 78
20260504042257 48 92 1.7 1.7 0.00 0.00 0.00 82
20260504041753 48 84 1.7 1.7 0.00 0.00 0.00 83
20260504041249 47 91 1.7 1.7 0.00 0.00 0.00 82
20260504040745 47 95 1.7 2.6 0.00 0.00 0.00 83
20260504040243 47 98 1.7 1.7 0.00 0.00 0.00 87
20260504035739 47 99 1.7 2.6 0.00 0.00 0.00 87
20260504035236 47 73 1.7 2.6 0.00 0.00 0.00 88
20260504034734 47 70 1.7 2.6 0.00 0.00 0.00 88
20260504034231 47 83 1.7 1.7 0.00 0.00 0.00 88
20260504033729 47 93 1.7 1.7 0.00 0.00 0.00 88
20260504033226 47 87 1.7 1.7 0.00 0.00 0.00 87
20260504032723 47 68 1.7 2.6 0.00 0.00 0.00 86
20260504032220 47 78 1.7 2.6 0.00 0.00 0.00 85
20260504031716 47 81 1.7 2.6 0.00 0.00 0.00 85
20260504031214 48 82 1.7 2.6 0.00 0.00 0.00 88
20260504030709 48 86 1.7 1.7 0.00 0.00 0.00 87
20260504030207 48 93 1.7 1.7 0.00 0.00 0.00 87
20260504025703 48 89 1.7 2.6 0.00 0.00 0.00 87
20260504025200 48 93 1.7 1.7 0.00 0.00 0.00 86
20260504024657 48 88 1.7 2.6 0.00 0.00 0.00 85
20260504024153 48 86 1.7 2.6 0.00 0.00 0.00 85
20260504023650 48 72 1.7 2.6 0.00 0.00 0.00 84
20260504023146 48 92 1.7 2.6 0.00 0.00 0.00 84
20260504022643 48 86 1.7 2.6 0.00 0.00 0.00 84
20260504022138 48 84 1.7 2.6 0.00 0.00 0.00 84
20260504021637 49 85 1.7 2.6 0.00 0.00 0.00 85
20260504021133 48 86 1.7 1.7 0.00 0.00 0.00 83
20260504020630 49 73 1.7 2.6 0.00 0.00 0.00 83
20260504020126 49 85 1.7 2.6 0.00 0.00 0.00 81
20260504015623 49 97 1.7 1.7 0.00 0.00 0.00 79
20260504015119 49 94 1.7 2.6 0.00 0.00 0.00 79
20260504014615 49 88 1.7 1.7 0.00 0.00 0.00 77
20260504014113 50 92 1.7 2.6 0.00 0.00 0.00 78
20260504013610 50 94 1.7 1.7 0.00 0.00 0.00 75
20260504013107 50 64 1.7 2.6 0.00 0.00 0.00 77
20260504012604 50 89 1.7 2.6 0.00 0.00 0.00 75
20260504012102 50 84 1.7 2.6 0.00 0.00 0.00 73
20260504011559 50 79 0.9 1.7 0.00 0.00 0.00 72
20260504011055 51 89 1.7 2.6 0.00 0.00 0.00 69
20260504010550 51 75 1.7 2.6 0.00 0.00 0.00 70
20260504010047 51 71 1.7 2.6 0.00 0.00 0.00 70
20260504005544 51 84 1.7 1.7 0.00 0.00 0.00 66
20260504005041 51 75 1.7 2.6 0.00 0.00 0.00 65
20260504004539 52 60 1.7 1.7 0.00 0.00 0.00 68
20260504004036 52 82 1.7 1.7 0.00 0.00 0.00 60
20260504003532 53 88 1.7 1.7 0.00 0.00 0.00 60
20260504003029 53 102 1.7 1.7 0.00 0.00 0.00 61
20260504002525 54 89 0.9 1.7 0.00 0.00 0.00 65
20260504002023 54 71 0.9 1.7 0.00 0.00 0.00 66
20260504001521 55 85 1.7 1.7 0.00 0.00 0.00 62
20260504001017 55 75 0.9 1.7 0.00 0.00 0.00 61
20260504000514 56 64 0.9 1.7 0.00 0.00 0.00 57
20260504000011 56 93 0.9 1.7 0.00 0.00 0.00 53
20260503235509 56 85 1.7 1.7 0.00 0.00 0.00 51
20260503235006 57 87 0.9 1.7 0.00 0.00 0.00 53
20260503234503 57 72 1.7 1.7 0.00 0.00 0.00 51
20260503234002 58 77 0.9 1.7 0.00 0.00 0.00 46
20260503233457 58 73 0.9 1.7 0.00 0.00 0.00 48
20260503232954 59 77 1.7 1.7 0.00 0.00 0.00 43
20260503232451 60 73 0.0 2.6 0.00 0.00 0.00 43
20260503231949 60 86 0.9 2.6 0.00 0.00 0.00 40
20260503231446 60 131 1.7 2.6 0.00 0.00 0.00 39
20260503230942 61 133 1.7 2.6 0.00 0.00 0.00 40
20260503230439 60 125 5.2 5.2 0.00 0.00 0.00 36
20260503225937 61 113 2.6 3.5 0.00 0.00 0.00 33
20260503225433 61 151 1.7 2.6 0.00 0.00 0.00 37
20260503224929 61 112 3.5 4.3 0.00 0.00 0.00 35
20260503224426 61 143 3.5 3.5 0.00 0.00 0.00 35
20260503223924 61 142 2.6 7.8 0.00 0.00 0.00 33
20260503223422 61 161 3.5 6.1 0.00 0.00 0.00 35
20260503222917 61 143 5.2 6.1 0.00 0.00 0.00 34
20260503222416 61 128 2.6 5.2 0.00 0.00 0.00 34
20260503221914 61 97 2.6 6.1 0.00 0.00 0.00 35
20260503221412 61 134 5.2 7.0 0.00 0.00 0.00 32
20260503220908 61 106 0.0 6.1 0.00 0.00 0.00 37
20260503220404 61 143 2.6 5.2 0.00 0.00 0.00 34
20260503215902 61 157 5.2 10.4 0.00 0.00 0.00 33
20260503215358 61 139 3.5 5.2 0.00 0.00 0.00 35
20260503214856 61 151 2.6 7.0 0.00 0.00 0.00 35
20260503214353 61 145 4.3 7.0 0.00 0.00 0.00 32
20260503213850 60 111 3.5 11.3 0.00 0.00 0.00 35
20260503213348 61 154 7.8 10.4 0.00 0.00 0.00 32
20260503212845 61 158 6.1 7.8 0.00 0.00 0.00 35
20260503212343 61 196 0.0 6.1 0.00 0.00 0.00 34
20260503211839 61 129 5.2 11.3 0.00 0.00 0.00 34
20260503211336 61 210 1.7 12.2 0.00 0.00 0.00 32
20260503210831 62 123 2.6 11.3 0.00 0.00 0.00 35
20260503210329 62 122 3.5 7.0 0.00 0.00 0.00 35
20260503205824 62 129 2.6 4.3 0.00 0.00 0.00 37
20260503205321 61 124 3.5 8.7 0.00 0.00 0.00 35
20260503204817 62 159 4.3 4.3 0.00 0.00 0.00 34
20260503204315 61 140 1.7 5.2 0.00 0.00 0.00 33
20260503203812 61 198 2.6 6.1 0.00 0.00 0.00 33
20260503203309 61 134 7.0 15.6 0.00 0.00 0.00 34
20260503202806 62 124 3.5 5.2 0.00 0.00 0.00 36
20260503202304 61 137 3.5 5.2 0.00 0.00 0.00 38
20260503201802 61 144 7.8 8.7 0.00 0.00 0.00 36
20260503201259 60 160 0.0 9.6 0.00 0.00 0.00 34
20260503200756 61 144 3.5 3.5 0.00 0.00 0.00 33
20260503200251 60 176 2.6 7.8 0.00 0.00 0.00 37
20260503195743 60 131 6.1 9.6 0.00 0.00 0.00 34
20260503195240 60 120 10.4 13.9 0.00 0.00 0.00 34
20260503194738 59 123 7.0 11.3 0.00 0.00 0.00 37
20260503194233 60 163 2.6 7.8 0.00 0.00 0.00 35
20260503193729 60 114 1.7 9.6 0.00 0.00 0.00 34
20260503193226 59 138 4.3 10.4 0.00 0.00 0.00 37
20260503192721 60 127 9.6 10.4 0.00 0.00 0.00 35
20260503192217 60 133 9.6 13.0 0.00 0.00 0.00 36
20260503191714 61 226 0.0 4.3 0.00 0.00 0.00 35
20260503191211 59 160 3.5 7.8 0.00 0.00 0.00 38
20260503190708 59 140 4.3 13.0 0.00 0.00 0.00 38
20260503190204 59 199 6.1 10.4 0.00 0.00 0.00 37